Home   Weather   Jackson   Past weeks
Flag for USA

Past Weather in Jackson, Wyoming, USA — Yesterday and Last 2 Weeks

Now
36 °F

Passing clouds.


Feels Like: 30 °F
Forecast: 40 / 30 °F
Wind: 7 mph from Southwest

Location: Jackson Hole

Current Time: Oct 18, 2019 at 3:03:43 am

Latest Report: Oct 18, 2019 at 1:56 am


Visibility: 10 mi

Pressure: 29.73 "Hg (23.49 "Hg at 1901m altitude)

Humidity: 73%

Dew Point: 28 °F

Location of JacksonLocation

Past Weather in Jackson — Graph

°F

Jackson Temperature Yesterday

Maximum temperature yesterday: 60 °F (at 1:56 pm)
Minimum temperature yesterday: 23 °F (at 6:56 am)
Average temperature yesterday: 40 °F

High & Low Weather Summary for the Past Weeks

 TemperatureHumidityPressure
High68 °F (Oct 16, 3:56 pm)96% (Oct 4, 9:56 pm)30.66 "Hg (Oct 4, 9:56 pm)
Low7 °F (Oct 11, 3:56 am)12% (Oct 13, 4:56 pm)29.50 "Hg (Oct 9, 3:56 am)
Average35 °F60%30.16 "Hg
* Reported Oct 3 1:56 am — Oct 18 1:56 am, Jackson. Weather by CustomWeather, © 2019

Note: Actual official high and low records may vary slightly from our data, if they occured in-between our weather recording intervals... More about our weather records

Advertising

Jackson Weather History for the Previous 24 Hours

Scroll right to see more
 ConditionsComfort  
Time TempWeatherWind HumidityBarometerVisibility
1:56 am
Fri, Oct 18
36 °FPassing clouds.7 mph73%29.73 "Hg10 mi
12:56 am35 °FPassing clouds.6 mph85%29.75 "Hg10 mi
11:56 pm
Thu, Oct 17
37 °FPassing clouds.7 mph86%29.75 "Hg10 mi
10:56 pm39 °FOvercast.12 mph73%29.77 "Hg10 mi
9:56 pm40 °FMostly cloudy.12 mph73%29.81 "Hg10 mi
8:56 pm39 °FMostly cloudy.12 mph79%29.84 "Hg10 mi
7:56 pm42 °FOvercast.14 mph65%29.83 "Hg10 mi
6:56 pm46 °FPassing clouds.5 mph56%29.76 "Hg10 mi
5:56 pm50 °FSunny.20 mph44%29.73 "Hg10 mi
4:56 pm56 °FOvercast.17 mph30%29.69 "Hg10 mi
3:56 pm60 °FMostly cloudy.15 mph25%29.66 "Hg10 mi
2:56 pm59 °FBroken clouds.9 mph25%29.67 "Hg10 mi
1:56 pm60 °FOvercast.12 mph23%29.69 "Hg10 mi
12:56 pm58 °FPartly sunny.12 mph26%29.70 "Hg10 mi
11:56 am52 °FScattered clouds.6 mph28%29.72 "Hg10 mi
10:56 am44 °FSunny.5 mph37%29.78 "Hg10 mi
9:56 am38 °FSunny.No wind46%29.81 "Hg10 mi
7:56 am24 °FSunny.7 mph77%29.88 "Hg10 mi
6:56 am23 °FClear.5 mph78%29.89 "Hg10 mi
5:56 am24 °FClear.8 mph77%29.87 "Hg10 mi
4:56 am24 °FClear.8 mph75%29.86 "Hg10 mi
3:56 am24 °FClear.8 mph75%29.89 "Hg10 mi
Weather by CustomWeather, © 2019

See weather overview